{"data":{"norad_id":68621,"epoch":"2026-09-20T00:11:46.497120Z","epoch_age_seconds":86991,"freshness":"FRESH","line1":"1 68621U 26073V   26263.00817705  .00019178  00000+0  59483-3 0  9995","line2":"2 68621  97.2842 101.0044 0001332  87.2851 272.8544 15.33445972 25661","mean_motion":15.33445972,"eccentricity":0.0001332,"inclination_deg":97.2842,"raan_deg":101.0044,"arg_perigee_deg":87.2851,"mean_anomaly_deg":272.8544,"bstar":0.00059483,"rev_number":2566,"period_min":93.906145132839,"perigee_km":464.62870467749,"apogee_km":466.45186030555,"semimajor_km":6843.6772824915,"source":"CELESTRAK","updated_at":"2026-09-20T09:00:43.947201Z"}}